| time (UTC) | temp F | wind direction | speed MPH | gust MPH | rain 1hr in | rain 24hr in | rain mn in | humidity % | barometer mb |
| 20260505163305 | 51 | 108 | 7.0 | 12.0 | 0.00 | 0.01 | 0.01 | 67 | 1008.0 |
| 20260505162805 | 50 | 118 | 6.0 | 14.0 | 0.00 | 0.01 | 0.01 | 67 | 1008.0 |
| 20260505161805 | 50 | 106 | 10.0 | 18.0 | 0.00 | 0.01 | 0.01 | 67 | 1007.9 |
| 20260505161305 | 50 | 118 | 9.0 | 18.0 | 0.00 | 0.01 | 0.01 | 67 | 1007.9 |
| 20260505160805 | 50 | 111 | 7.0 | 13.0 | 0.00 | 0.01 | 0.01 | 68 | 1007.7 |
| 20260505160305 | 50 | 127 | 8.0 | 15.0 | 0.00 | 0.01 | 0.01 | 68 | 1007.7 |
| 20260505153305 | 51 | 125 | 11.0 | 18.0 | 0.00 | 0.01 | 0.01 | 68 | 1007.5 |
| 20260505152805 | 51 | 132 | 10.0 | 14.0 | 0.00 | 0.01 | 0.01 | 67 | 1007.5 |
| 20260505152305 | 51 | 117 | 9.0 | 13.0 | 0.00 | 0.01 | 0.01 | 67 | 1007.5 |
| 20260505151805 | 51 | 123 | 9.0 | 13.0 | 0.01 | 0.01 | 0.01 | 67 | 1007.3 |
| 20260505151305 | 51 | 117 | 6.0 | 14.0 | 0.01 | 0.01 | 0.01 | 67 | 1007.3 |
| 20260505150805 | 51 | 109 | 7.0 | 14.0 | 0.01 | 0.01 | 0.01 | 66 | 1007.3 |
| 20260505150305 | 51 | 123 | 10.0 | 15.0 | 0.01 | 0.01 | 0.01 | 66 | 1007.3 |
| 20260505140305 | 53 | 108 | 7.0 | 13.0 | 0.00 | 0.00 | 0.00 | 60 | 1006.6 |
| 20260505130305 | 55 | 107 | 8.0 | 14.0 | 0.00 | 0.00 | 0.00 | 55 | 1005.8 |
| 20260505124305 | 55 | 131 | 7.0 | 13.0 | 0.00 | 0.00 | 0.00 | 64 | 1005.5 |
| 20260505123805 | 55 | 134 | 6.0 | 9.0 | 0.00 | 0.00 | 0.00 | 69 | 1005.5 |
| 20260505123305 | 55 | 145 | 5.0 | 12.0 | 0.00 | 0.00 | 0.00 | 70 | 1005.5 |
| 20260505122805 | 55 | 151 | 5.0 | 7.0 | 0.00 | 0.00 | 0.00 | 70 | 1005.5 |
| 20260505121804 | 55 | 174 | 3.0 | 3.0 | 0.00 | 0.00 | 0.00 | 71 | 1005.5 |
| 20260505121305 | 55 | 165 | 3.0 | 5.0 | 0.00 | 0.00 | 0.00 | 71 | 1005.6 |
| 20260505120805 | 55 | 172 | 3.0 | 7.0 | 0.00 | 0.00 | 0.00 | 71 | 1005.6 |
| 20260505120305 | 55 | 172 | 3.0 | 6.0 | 0.00 | 0.00 | 0.00 | 69 | 1005.5 |
| 20260505115805 | 55 | 219 | 4.0 | 6.0 | 0.00 | 0.00 | 0.00 | 68 | 1005.5 |
| 20260505114805 | 55 | 180 | 3.0 | 6.0 | 0.00 | 0.00 | 0.00 | 67 | 1005.5 |
| 20260505114305 | 55 | 170 | 5.0 | 8.0 | 0.00 | 0.00 | 0.00 | 67 | 1005.5 |
| 20260505113304 | 55 | 182 | 3.0 | 6.0 | 0.00 | 0.00 | 0.00 | 67 | 1005.5 |
| 20260505112804 | 55 | 168 | 5.0 | 9.0 | 0.00 | 0.00 | 0.00 | 68 | 1005.5 |
| 20260505112305 | 55 | 188 | 2.0 | 5.0 | 0.00 | 0.00 | 0.00 | 69 | 1005.4 |
| 20260505111805 | 55 | 135 | 6.0 | 9.0 | 0.00 | 0.00 | 0.00 | 71 | 1005.4 |
| 20260505110804 | 55 | 109 | 5.0 | 8.0 | 0.00 | 0.00 | 0.00 | 73 | 1005.5 |
| 20260505110305 | 55 | 116 | 6.0 | 9.0 | 0.00 | 0.00 | 0.00 | 74 | 1005.5 |
| 20260505101804 | 56 | 104 | 4.0 | 8.0 | 0.00 | 0.00 | 0.00 | 69 | 1005.5 |
| 20260505101305 | 56 | 135 | 2.0 | 5.0 | 0.00 | 0.00 | 0.00 | 69 | 1005.5 |
| 20260505100805 | 56 | 131 | 4.0 | 7.0 | 0.00 | 0.00 | 0.00 | 68 | 1005.5 |
| 20260505100304 | 56 | 150 | 3.0 | 6.0 | 0.00 | 0.00 | 0.00 | 68 | 1005.5 |
| 20260505095804 | 57 | 151 | 3.0 | 5.0 | 0.00 | 0.00 | 0.00 | 68 | 1005.4 |
| 20260505095305 | 57 | 157 | 2.0 | 5.0 | 0.00 | 0.00 | 0.00 | 67 | 1005.3 |
| 20260505094805 | 57 | 135 | 2.0 | 3.0 | 0.00 | 0.00 | 0.00 | 67 | 1005.3 |
| 20260505094305 | 57 | 124 | 1.0 | 3.0 | 0.00 | 0.00 | 0.00 | 66 | 1005.4 |
| 20260505093305 | 57 | 158 | 3.0 | 6.0 | 0.00 | 0.00 | 0.00 | 67 | 1005.4 |
| 20260505092805 | 56 | 161 | 4.0 | 7.0 | 0.00 | 0.00 | 0.00 | 68 | 1005.4 |
| 20260505092305 | 56 | 179 | 3.0 | 6.0 | 0.00 | 0.00 | 0.00 | 69 | 1005.4 |
| 20260505091805 | 56 | 172 | 4.0 | 6.0 | 0.00 | 0.00 | 0.00 | 69 | 1005.4 |
| 20260505091305 | 56 | 179 | 5.0 | 6.0 | 0.00 | 0.00 | 0.00 | 70 | 1005.4 |
| 20260505090804 | 56 | 179 | 3.0 | 3.0 | 0.00 | 0.00 | 0.00 | 70 | 1005.4 |
| 20260505090305 | 56 | 169 | 3.0 | 5.0 | 0.00 | 0.00 | 0.00 | 70 | 1005.6 |
| 20260505085805 | 56 | 181 | 3.0 | 7.0 | 0.00 | 0.00 | 0.00 | 70 | 1005.6 |
| 20260505084805 | 56 | 168 | 3.0 | 5.0 | 0.00 | 0.00 | 0.00 | 69 | 1005.6 |
| 20260505084305 | 56 | 186 | 4.0 | 7.0 | 0.00 | 0.00 | 0.00 | 68 | 1005.6 |
| 20260505083304 | 56 | 188 | 2.0 | 3.0 | 0.00 | 0.00 | 0.00 | 67 | 1005.7 |
| 20260505082804 | 56 | 195 | 2.0 | 3.0 | 0.00 | 0.00 | 0.00 | 67 | 1005.6 |
| 20260505081805 | 56 | 180 | 1.0 | 3.0 | 0.00 | 0.00 | 0.00 | 67 | 1005.6 |
| 20260505081305 | 56 | 162 | 3.0 | 7.0 | 0.00 | 0.00 | 0.00 | 67 | 1005.6 |
| 20260505080304 | 56 | 157 | 3.0 | 6.0 | 0.00 | 0.00 | 0.00 | 68 | 1005.8 |
| 20260505075805 | 56 | 150 | 2.0 | 5.0 | 0.00 | 0.00 | 0.00 | 67 | 1005.8 |
| 20260505075305 | 56 | 161 | 2.0 | 3.0 | 0.00 | 0.00 | 0.00 | 67 | 1005.9 |
| 20260505074305 | 56 | 143 | 3.0 | 8.0 | 0.00 | 0.00 | 0.00 | 67 | 1006.1 |
| 20260505073805 | 56 | 159 | 3.0 | 7.0 | 0.00 | 0.00 | 0.00 | 67 | 1006.1 |
| 20260505073304 | 56 | 158 | 4.0 | 7.0 | 0.00 | 0.00 | 0.00 | 66 | 1006.1 |
| 20260505072805 | 56 | 163 | 3.0 | 5.0 | 0.00 | 0.00 | 0.00 | 65 | 1006.3 |
| 20260505072305 | 56 | 157 | 3.0 | 8.0 | 0.00 | 0.00 | 0.00 | 65 | 1006.3 |
| 20260505071804 | 56 | 139 | 4.0 | 8.0 | 0.00 | 0.00 | 0.00 | 64 | 1006.3 |
| 20260505071305 | 57 | 147 | 5.0 | 12.0 | 0.00 | 0.00 | 0.00 | 64 | 1006.3 |
| 20260505070805 | 57 | 136 | 6.0 | 9.0 | 0.00 | 0.00 | 0.00 | 63 | 1006.3 |
| 20260505070304 | 57 | 121 | 5.0 | 8.0 | 0.00 | 0.00 | 0.00 | 63 | 1006.3 |
| 20260505065804 | 57 | 115 | 5.0 | 7.0 | 0.00 | 0.00 | 0.00 | 62 | 1006.3 |
| 20260505065305 | 57 | 134 | 5.0 | 8.0 | 0.00 | 0.00 | 0.00 | 62 | 1006.3 |
| 20260505064305 | 57 | 119 | 5.0 | 8.0 | 0.00 | 0.00 | 0.00 | 61 | 1006.3 |
| 20260505063805 | 58 | 124 | 6.0 | 9.0 | 0.00 | 0.00 | 0.00 | 60 | 1006.3 |
| 20260505063305 | 58 | 121 | 6.0 | 9.0 | 0.00 | 0.00 | 0.00 | 58 | 1006.3 |
| 20260505062805 | 58 | 108 | 3.0 | 6.0 | 0.00 | 0.00 | 0.00 | 55 | 1006.3 |
| 20260505061804 | 58 | 179 | 2.0 | 6.0 | 0.00 | 0.00 | 0.00 | 54 | 1006.3 |
| 20260505061304 | 58 | 188 | 3.0 | 6.0 | 0.00 | 0.00 | 0.00 | 54 | 1006.5 |
| 20260505060304 | 58 | 169 | 5.0 | 8.0 | 0.00 | 0.00 | 0.00 | 55 | 1006.6 |
| 20260505055804 | 58 | 179 | 2.0 | 8.0 | 0.00 | 0.00 | 0.00 | 56 | 1006.3 |
| 20260505055305 | 58 | 186 | 2.0 | 7.0 | 0.00 | 0.00 | 0.00 | 56 | 1006.3 |
| 20260505054805 | 58 | 222 | 6.0 | 15.0 | 0.00 | 0.00 | 0.00 | 56 | 1006.3 |
| 20260505054305 | 58 | 224 | 5.0 | 10.0 | 0.00 | 0.00 | 0.00 | 57 | 1006.3 |
| 20260505053304 | 58 | 231 | 10.0 | 15.0 | 0.00 | 0.00 | 0.00 | 56 | 1006.3 |
| 20260505052805 | 58 | 234 | 5.0 | 8.0 | 0.00 | 0.00 | 0.00 | 56 | 1006.3 |
| 20260505052305 | 58 | 215 | 0.0 | 5.0 | 0.00 | 0.00 | 0.00 | 56 | 1006.2 |
| 20260505051805 | 59 | 213 | 4.0 | 8.0 | 0.00 | 0.00 | 0.00 | 56 | 1006.2 |
| 20260505051305 | 59 | 238 | 5.0 | 12.0 | 0.00 | 0.00 | 0.00 | 56 | 1006.2 |
| 20260505050805 | 59 | 237 | 5.0 | 13.0 | 0.00 | 0.00 | 0.00 | 56 | 1005.9 |
| 20260505050304 | 59 | 223 | 12.0 | 16.0 | 0.00 | 0.00 | 0.00 | 55 | 1005.9 |
| 20260505041304 | 62 | 251 | 7.0 | 14.0 | 0.00 | 0.00 | 0.00 | 48 | 1004.6 |
| 20260505040805 | 62 | 234 | 7.0 | 9.0 | 0.00 | 0.00 | 0.00 | 47 | 1004.6 |
| 20260505035804 | 62 | 230 | 6.0 | 8.0 | 0.00 | 0.00 | 0.00 | 49 | 1004.6 |
| 20260505035304 | 62 | 192 | 4.0 | 7.0 | 0.00 | 0.00 | 0.00 | 54 | 1004.6 |
| 20260505034805 | 63 | 157 | 5.0 | 7.0 | 0.00 | 0.00 | 0.00 | 53 | 1004.6 |
| 20260505034305 | 63 | 155 | 4.0 | 9.0 | 0.00 | 0.00 | 0.00 | 50 | 1004.6 |
| 20260505033805 | 63 | 151 | 6.0 | 8.0 | 0.00 | 0.00 | 0.00 | 48 | 1004.6 |
| 20260505033304 | 63 | 181 | 4.0 | 9.0 | 0.00 | 0.00 | 0.00 | 48 | 1004.6 |
| 20260505032305 | 63 | 214 | 4.0 | 10.0 | 0.00 | 0.00 | 0.00 | 51 | 1004.6 |
| 20260505031804 | 63 | 207 | 4.0 | 8.0 | 0.00 | 0.00 | 0.00 | 51 | 1004.5 |
| 20260505030805 | 64 | 191 | 5.0 | 7.0 | 0.00 | 0.00 | 0.00 | 48 | 1004.0 |
| 20260505030304 | 64 | 179 | 5.0 | 7.0 | 0.00 | 0.00 | 0.00 | 47 | 1004.0 |
| 20260505025805 | 64 | 163 | 5.0 | 9.0 | 0.00 | 0.00 | 0.00 | 46 | 1004.0 |
| 20260505025305 | 64 | 170 | 5.0 | 12.0 | 0.00 | 0.00 | 0.00 | 45 | 1003.8 |
| 20260505024804 | 64 | 178 | 6.0 | 10.0 | 0.00 | 0.00 | 0.00 | 44 | 1003.8 |
| 20260505024305 | 64 | 163 | 6.0 | 10.0 | 0.00 | 0.00 | 0.00 | 45 | 1003.8 |
| 20260505023804 | 64 | 180 | 7.0 | 12.0 | 0.00 | 0.00 | 0.00 | 46 | 1003.7 |
| 20260505023305 | 65 | 172 | 7.0 | 12.0 | 0.00 | 0.00 | 0.00 | 45 | 1003.6 |
| 20260505022305 | 65 | 194 | 6.0 | 9.0 | 0.00 | 0.00 | 0.00 | 39 | 1003.4 |
| 20260505021805 | 65 | 151 | 3.0 | 9.0 | 0.00 | 0.00 | 0.00 | 39 | 1003.4 |
| 20260505021304 | 65 | 167 | 7.0 | 12.0 | 0.00 | 0.00 | 0.00 | 39 | 1003.3 |
| 20260505020804 | 65 | 140 | 6.0 | 9.0 | 0.00 | 0.00 | 0.00 | 39 | 1003.2 |
| 20260505020304 | 66 | 145 | 7.0 | 12.0 | 0.00 | 0.00 | 0.00 | 38 | 1003.1 |
| 20260505015804 | 66 | 154 | 6.0 | 12.0 | 0.00 | 0.00 | 0.00 | 38 | 1003.4 |
| 20260505015304 | 66 | 126 | 5.0 | 15.0 | 0.00 | 0.00 | 0.00 | 38 | 1003.4 |
| 20260505014804 | 66 | 145 | 7.0 | 16.0 | 0.00 | 0.00 | 0.00 | 37 | 1003.4 |
| 20260505014305 | 66 | 151 | 9.0 | 12.0 | 0.00 | 0.00 | 0.00 | 37 | 1003.4 |
| 20260505013804 | 66 | 148 | 7.0 | 10.0 | 0.00 | 0.00 | 0.00 | 38 | 1003.4 |
| 20260505013305 | 66 | 160 | 5.0 | 9.0 | 0.00 | 0.00 | 0.00 | 38 | 1003.5 |
| 20260505011805 | 66 | 132 | 9.0 | 16.0 | 0.00 | 0.00 | 0.00 | 38 | 1003.7 |
| 20260505011304 | 67 | 135 | 8.0 | 16.0 | 0.00 | 0.00 | 0.00 | 38 | 1003.7 |
| 20260505010804 | 67 | 136 | 9.0 | 14.0 | 0.00 | 0.00 | 0.00 | 38 | 1003.7 |
| 20260505010304 | 68 | 139 | 10.0 | 18.0 | 0.00 | 0.00 | 0.00 | 38 | 1003.7 |
| 20260505005805 | 69 | 154 | 7.0 | 12.0 | 0.00 | 0.00 | 0.00 | 34 | 1003.5 |
| 20260505005304 | 70 | 182 | 7.0 | 12.0 | 0.00 | 0.00 | 0.00 | 30 | 1003.4 |
| 20260505004804 | 70 | 180 | 6.0 | 9.0 | 0.00 | 0.00 | 0.00 | 30 | 1003.4 |
| 20260505004305 | 70 | 172 | 3.0 | 6.0 | 0.00 | 0.00 | 0.00 | 29 | 1003.4 |
| 20260505003304 | 70 | 151 | 7.0 | 10.0 | 0.00 | 0.00 | 0.00 | 30 | 1003.5 |
| 20260505002804 | 70 | 156 | 5.0 | 7.0 | 0.00 | 0.00 | 0.00 | 30 | 1003.5 |
| 20260505002305 | 70 | 144 | 2.0 | 6.0 | 0.00 | 0.00 | 0.00 | 29 | 1003.5 |
| 20260505001804 | 70 | 165 | 4.0 | 10.0 | 0.00 | 0.00 | 0.00 | 30 | 1003.6 |
| 20260505001304 | 70 | 142 | 4.0 | 12.0 | 0.00 | 0.00 | 0.00 | 29 | 1003.6 |
| 20260505000804 | 71 | 157 | 3.0 | 12.0 | 0.00 | 0.00 | 0.00 | 29 | 1003.6 |
| 20260505000304 | 70 | 0 | 1.0 | 5.0 | 0.00 | 0.00 | 0.00 | 30 | 1003.6 |
| 20260504235305 | 71 | 352 | 5.0 | 8.0 | 0.00 | 0.00 | 0.00 | 30 | 1003.6 |
| 20260504234804 | 71 | 327 | 3.0 | 7.0 | 0.00 | 0.00 | 0.00 | 29 | 1003.6 |
| 20260504234304 | 71 | 321 | 5.0 | 9.0 | 0.00 | 0.00 | 0.00 | 30 | 1003.6 |
| 20260504233804 | 71 | 305 | 6.0 | 12.0 | 0.00 | 0.00 | 0.00 | 29 | 1003.6 |
| 20260504233304 | 70 | 316 | 5.0 | 9.0 | 0.00 | 0.00 | 0.00 | 30 | 1003.5 |
| 20260504231804 | 70 | 278 | 5.0 | 9.0 | 0.00 | 0.00 | 0.00 | 30 | 1003.5 |
| 20260504231305 | 70 | 316 | 10.0 | 13.0 | 0.00 | 0.00 | 0.00 | 29 | 1003.5 |
| 20260504230804 | 70 | 38 | 5.0 | 10.0 | 0.00 | 0.00 | 0.00 | 32 | 1003.5 |
| 20260504230305 | 71 | 97 | 5.0 | 12.0 | 0.00 | 0.00 | 0.00 | 31 | 1003.6 |
| 20260504225804 | 72 | 124 | 5.0 | 12.0 | 0.00 | 0.00 | 0.00 | 30 | 1003.6 |
| 20260504225304 | 71 | 105 | 4.0 | 8.0 | 0.00 | 0.00 | 0.00 | 30 | 1003.7 |
| 20260504224805 | 71 | 19 | 4.0 | 9.0 | 0.00 | 0.00 | 0.00 | 32 | 1003.6 |
| 20260504224304 | 71 | 43 | 4.0 | 13.0 | 0.00 | 0.00 | 0.00 | 30 | 1003.5 |
| 20260504223805 | 71 | 65 | 8.0 | 21.0 | 0.00 | 0.00 | 0.00 | 30 | 1003.5 |
| 20260504223304 | 72 | 48 | 7.0 | 13.0 | 0.00 | 0.00 | 0.00 | 29 | 1003.5 |
| 20260504222804 | 73 | 39 | 5.0 | 13.0 | 0.00 | 0.00 | 0.00 | 29 | 1003.5 |
| 20260504222305 | 72 | 119 | 1.0 | 2.0 | 0.00 | 0.00 | 0.00 | 28 | 1003.5 |
| 20260504221804 | 72 | 44 | 3.0 | 8.0 | 0.00 | 0.00 | 0.00 | 29 | 1003.6 |
| 20260504220804 | 72 | 37 | 3.0 | 6.0 | 0.00 | 0.00 | 0.00 | 28 | 1003.4 |
| 20260504220304 | 72 | 294 | 6.0 | 10.0 | 0.00 | 0.00 | 0.00 | 28 | 1003.4 |
| 20260504215804 | 72 | 240 | 7.0 | 10.0 | 0.00 | 0.00 | 0.00 | 28 | 1003.5 |
| 20260504215305 | 71 | 299 | 6.0 | 12.0 | 0.00 | 0.00 | 0.00 | 29 | 1003.7 |
| 20260504214804 | 71 | 304 | 6.0 | 10.0 | 0.00 | 0.00 | 0.00 | 30 | 1003.7 |
| 20260504214305 | 70 | 300 | 7.0 | 12.0 | 0.00 | 0.00 | 0.00 | 30 | 1003.7 |
| 20260504213804 | 70 | 292 | 6.0 | 15.0 | 0.00 | 0.00 | 0.00 | 31 | 1003.7 |
| 20260504213304 | 71 | 275 | 9.0 | 15.0 | 0.00 | 0.00 | 0.00 | 31 | 1004.0 |
| 20260504212804 | 72 | 277 | 9.0 | 15.0 | 0.00 | 0.00 | 0.00 | 30 | 1004.0 |
| 20260504212304 | 71 | 277 | 7.0 | 12.0 | 0.00 | 0.00 | 0.00 | 31 | 1004.0 |
| 20260504210804 | 71 | 280 | 6.0 | 15.0 | 0.00 | 0.00 | 0.00 | 31 | 1004.2 |
| 20260504210304 | 71 | 246 | 7.0 | 12.0 | 0.00 | 0.00 | 0.00 | 30 | 1004.3 |
| 20260504205804 | 71 | 179 | 6.0 | 9.0 | 0.00 | 0.00 | 0.00 | 29 | 1004.2 |
| 20260504205304 | 71 | 183 | 7.0 | 12.0 | 0.00 | 0.00 | 0.00 | 30 | 1004.2 |
| 20260504204804 | 71 | 173 | 6.0 | 8.0 | 0.00 | 0.00 | 0.00 | 31 | 1004.2 |
| 20260504204304 | 71 | 176 | 8.0 | 12.0 | 0.00 | 0.00 | 0.00 | 30 | 1004.2 |
| 20260504203804 | 72 | 165 | 6.0 | 13.0 | 0.00 | 0.00 | 0.00 | 32 | 1004.3 |
| 20260504203304 | 72 | 169 | 8.0 | 13.0 | 0.00 | 0.00 | 0.00 | 30 | 1004.3 |
| 20260504202804 | 72 | 159 | 10.0 | 13.0 | 0.00 | 0.00 | 0.00 | 30 | 1004.3 |
| 20260504202305 | 73 | 168 | 9.0 | 14.0 | 0.00 | 0.00 | 0.00 | 28 | 1004.3 |
| 20260504201804 | 73 | 161 | 9.0 | 13.0 | 0.00 | 0.00 | 0.00 | 28 | 1004.3 |
| 20260504201304 | 73 | 180 | 9.0 | 14.0 | 0.00 | 0.00 | 0.00 | 28 | 1004.5 |
| 20260504200805 | 73 | 180 | 6.0 | 14.0 | 0.00 | 0.00 | 0.00 | 28 | 1004.4 |
| 20260504200304 | 73 | 165 | 6.0 | 15.0 | 0.00 | 0.00 | 0.00 | 28 | 1004.5 |
| 20260504195804 | 73 | 168 | 7.0 | 12.0 | 0.00 | 0.00 | 0.00 | 27 | 1004.6 |
| 20260504194804 | 73 | 168 | 7.0 | 12.0 | 0.00 | 0.00 | 0.00 | 28 | 1004.7 |
| 20260504194304 | 73 | 129 | 7.0 | 14.0 | 0.00 | 0.00 | 0.00 | 27 | 1004.7 |
| 20260504193804 | 73 | 155 | 7.0 | 12.0 | 0.00 | 0.00 | 0.00 | 28 | 1004.9 |
| 20260504193304 | 73 | 160 | 9.0 | 14.0 | 0.00 | 0.00 | 0.00 | 29 | 1004.9 |
| 20260504192804 | 73 | 147 | 6.0 | 12.0 | 0.00 | 0.00 | 0.00 | 28 | 1004.9 |
| 20260504192305 | 72 | 178 | 7.0 | 12.0 | 0.00 | 0.00 | 0.00 | 29 | 1005.0 |
| 20260504191805 | 72 | 136 | 8.0 | 12.0 | 0.00 | 0.00 | 0.00 | 29 | 1005.0 |
| 20260504191304 | 72 | 146 | 9.0 | 14.0 | 0.00 | 0.00 | 0.00 | 29 | 1005.1 |
| 20260504190804 | 72 | 149 | 7.0 | 12.0 | 0.00 | 0.00 | 0.00 | 29 | 1005.5 |
| 20260504185804 | 72 | 144 | 9.0 | 15.0 | 0.00 | 0.00 | 0.00 | 31 | 1005.5 |
| 20260504185304 | 72 | 163 | 7.0 | 12.0 | 0.00 | 0.00 | 0.00 | 30 | 1005.5 |
| 20260504184805 | 72 | 162 | 7.0 | 14.0 | 0.00 | 0.00 | 0.00 | 30 | 1005.6 |
| 20260504184304 | 72 | 139 | 6.0 | 12.0 | 0.00 | 0.00 | 0.00 | 31 | 1005.6 |
| 20260504183804 | 72 | 150 | 8.0 | 14.0 | 0.00 | 0.00 | 0.00 | 31 | 1005.5 |
| 20260504183304 | 71 | 158 | 9.0 | 14.0 | 0.00 | 0.00 | 0.00 | 31 | 1005.7 |
| 20260504182805 | 71 | 148 | 6.0 | 12.0 | 0.00 | 0.00 | 0.00 | 32 | 1005.6 |
| 20260504182304 | 71 | 145 | 10.0 | 15.0 | 0.00 | 0.00 | 0.00 | 31 | 1005.7 |
| 20260504181804 | 71 | 144 | 8.0 | 14.0 | 0.00 | 0.00 | 0.00 | 31 | 1005.9 |
| 20260504180805 | 71 | 151 | 7.0 | 14.0 | 0.00 | 0.00 | 0.00 | 31 | 1006.0 |
| 20260504180304 | 71 | 152 | 6.0 | 12.0 | 0.00 | 0.00 | 0.00 | 31 | 1006.2 |
| 20260504175804 | 70 | 145 | 7.0 | 12.0 | 0.00 | 0.00 | 0.00 | 32 | 1006.2 |
| 20260504175304 | 70 | 164 | 6.0 | 12.0 | 0.00 | 0.00 | 0.00 | 32 | 1006.2 |
| 20260504174805 | 70 | 106 | 5.0 | 12.0 | 0.00 | 0.00 | 0.00 | 32 | 1006.4 |
| 20260504174304 | 70 | 129 | 6.0 | 12.0 | 0.00 | 0.00 | 0.00 | 33 | 1006.4 |
| 20260504173805 | 69 | 142 | 7.0 | 10.0 | 0.00 | 0.00 | 0.00 | 33 | 1006.3 |
| 20260504173305 | 69 | 116 | 6.0 | 12.0 | 0.00 | 0.00 | 0.00 | 33 | 1006.5 |
| 20260504172804 | 69 | 165 | 6.0 | 15.0 | 0.00 | 0.00 | 0.00 | 33 | 1006.5 |
| 20260504171804 | 69 | 157 | 7.0 | 12.0 | 0.00 | 0.00 | 0.00 | 33 | 1006.5 |
| 20260504171304 | 69 | 137 | 5.0 | 12.0 | 0.00 | 0.00 | 0.00 | 34 | 1006.4 |
| 20260504170804 | 69 | 151 | 3.0 | 7.0 | 0.00 | 0.00 | 0.00 | 37 | 1006.6 |
| 20260504170305 | 68 | 159 | 3.0 | 10.0 | 0.00 | 0.00 | 0.00 | 39 | 1006.6 |